Rochester, Indiana, United States (46975)
Lat: 41.06N, Lon: 86.22W
Wx Zone: INZ015
Local Info
Past Weather Observations for Today

NOTE: This archive is for the closest National Weather Service station to Rochester. Information may differ from the station used for current weather conditions.

Time Weather Temperature Dewpoint Humidity Pressure Winds Precip Visibility
21:55
Clear
50°F / 10°C 32°F / 0°C 50% 30.09 in
(1019 mb)
Calm - 10SM
21:35
Clear
50°F / 10°C 32°F / 0°C 50% 30.09 in
(1019 mb)
Calm - 10SM
21:15
Partly Cloudy
52°F / 11°C 32°F / 0°C 47% 30.09 in
(1019 mb)
Calm - 10SM
20:55
Partly Cloudy
52°F / 11°C 32°F / 0°C 47% 30.09 in
(1019 mb)
Calm - 10SM
20:35
Clear
52°F / 11°C 30°F / -1°C 44% 30.09 in
(1019 mb)
Calm - 10SM
20:15
Clear
52°F / 11°C 30°F / -1°C 44% 30.09 in
(1019 mb)
Calm - 10SM
19:55
Clear
52°F / 11°C 30°F / -1°C 44% 30.09 in
(1019 mb)
Calm - 10SM
19:35
Clear
52°F / 11°C 28°F / -2°C 41% 30.09 in
(1019 mb)
ENE 3.5 mph
(ENE 6 kph)
- 10SM
19:15
Clear
52°F / 11°C 28°F / -2°C 41% 30.09 in
(1019 mb)
NE 3.5 mph
(NE 6 kph)
- 10SM
18:55
Clear
54°F / 12°C 28°F / -2°C 38% 30.06 in
(1018 mb)
NE 4.6 mph
(NE 7 kph)
- 10SM
18:35
Clear
54°F / 12°C 28°F / -2°C 38% 30.06 in
(1018 mb)
E 3.5 mph
(E 6 kph)
- 10SM
18:15
Clear
55°F / 13°C 28°F / -2°C 36% 30.09 in
(1019 mb)
NNE 5.8 mph
(NNE 9 kph)
- 10SM
17:55
Clear
55°F / 13°C 28°F / -2°C 36% 30.09 in
(1019 mb)
Calm - 10SM
17:35
Clear
55°F / 13°C 28°F / -2°C 36% 30.06 in
(1018 mb)
NE 8.1 mph
(NE 13 kph)
- 10SM
17:15
Clear
55°F / 13°C 28°F / -2°C 36% 30.06 in
(1018 mb)
E 4.6 mph
(E 7 kph)
- 10SM
16:55
Clear
55°F / 13°C 28°F / -2°C 36% 30.06 in
(1018 mb)
ENE 4.6 mph
(ENE 7 kph)
- 10SM
16:35
Clear
55°F / 13°C 28°F / -2°C 36% 30.06 in
(1018 mb)
NE 6.9 mph
(NE 11 kph)
- 10SM
16:15
Clear
55°F / 13°C 30°F / -1°C 38% 30.09 in
(1019 mb)
ENE 8.1 mph
(ENE 13 kph)
- 10SM
15:55
Clear
55°F / 13°C 30°F / -1°C 38% 30.09 in
(1019 mb)
NE 4.6 mph
(NE 7 kph)
- 10SM
15:35
Clear
55°F / 13°C 30°F / -1°C 38% 30.09 in
(1019 mb)
NE 6.9 mph
(NE 11 kph)
- 10SM
15:15
Clear
55°F / 13°C 30°F / -1°C 38% 30.09 in
(1019 mb)
NNE 6.9 mph
(NNE 11 kph)
- 10SM
14:55
Clear
54°F / 12°C 30°F / -1°C 41% 30.09 in
(1019 mb)
NE 3.5 mph
(NE 6 kph)
- 10SM
14:35
Clear
54°F / 12°C 30°F / -1°C 41% 30.12 in
(1020 mb)
N 8.1 mph
(N 13 kph)
- 10SM
14:15
Clear
54°F / 12°C 32°F / 0°C 44% 30.12 in
(1020 mb)
NNE 8.1 mph
(NNE 13 kph)
- 10SM
13:55
Clear
54°F / 12°C 30°F / -1°C 41% 30.12 in
(1020 mb)
NW 5.8 mph
(NW 9 kph)
- 10SM
13:35
Clear
52°F / 11°C 30°F / -1°C 44% 30.12 in
(1020 mb)
ENE 3.5 mph
(ENE 6 kph)
- 10SM
13:15
Clear
52°F / 11°C 32°F / 0°C 47% 30.12 in
(1020 mb)
N 10.4 mph
(N 17 kph)
- 10SM
12:55
Clear
50°F / 10°C 32°F / 0°C 50% 30.12 in
(1020 mb)
N 4.6 mph
(N 7 kph)
- 10SM
12:35
Clear
50°F / 10°C 32°F / 0°C 50% 30.12 in
(1020 mb)
N 8.1 mph
(N 13 kph)
- 10SM
12:15
Clear
50°F / 10°C 32°F / 0°C 50% 30.12 in
(1020 mb)
NW 5.8 mph
(NW 9 kph)
- 10SM
11:55
Clear
48°F / 9°C 32°F / 0°C 54% 30.12 in
(1020 mb)
NE 4.6 mph
(NE 7 kph)
- 10SM
11:35
Clear
46°F / 8°C 32°F / 0°C 57% 30.12 in
(1020 mb)
N 4.6 mph
(N 7 kph)
- 10SM
11:15
Clear
46°F / 8°C 30°F / -1°C 53% 30.12 in
(1020 mb)
Calm - 10SM
10:55
Clear
46°F / 8°C 32°F / 0°C 57% 30.15 in
(1021 mb)
N 5.8 mph
(N 9 kph)
- 10SM
10:35
Clear
45°F / 7°C 30°F / -1°C 57% 30.15 in
(1021 mb)
N 8.1 mph
(N 13 kph)
- 10SM
10:15
Clear
45°F / 7°C 30°F / -1°C 57% 30.12 in
(1020 mb)
NE 9.2 mph
(NE 15 kph)
- 10SM
09:55
Clear
43°F / 6°C 30°F / -1°C 61% 30.12 in
(1020 mb)
NNE 6.9 mph
(NNE 11 kph)
- 10SM
09:35
Clear
41°F / 5°C 30°F / -1°C 66% 30.12 in
(1020 mb)
N 4.6 mph
(N 7 kph)
- 10SM
09:15
Clear
41°F / 5°C 30°F / -1°C 66% 30.12 in
(1020 mb)
NNE 5.8 mph
(NNE 9 kph)
- 10SM
08:55
Clear
39°F / 4°C 30°F / -1°C 70% 30.12 in
(1020 mb)
N 6.9 mph
(N 11 kph)
- 10SM
08:35
Clear
37°F / 3°C 30°F / -1°C 75% 30.12 in
(1020 mb)
NNE 9.2 mph
(NNE 15 kph)
- 10SM
08:15
Clear
37°F / 3°C 30°F / -1°C 75% 30.12 in
(1020 mb)
N 10.4 mph
(N 17 kph)
- 10SM
07:55
Clear
36°F / 2°C 30°F / -1°C 81% 30.12 in
(1020 mb)
N 10.4 mph
(N 17 kph)
- 10SM
07:35
Clear
36°F / 2°C 28°F / -2°C 75% 30.12 in
(1020 mb)
N 9.2 mph
(N 15 kph)
- 10SM
07:15
Clear
34°F / 1°C 28°F / -2°C 81% 30.12 in
(1020 mb)
N 8.1 mph
(N 13 kph)
- 10SM
06:55
Clear
34°F / 1°C 28°F / -2°C 81% 30.09 in
(1019 mb)
N 8.1 mph
(N 13 kph)
- 10SM
06:35
Clear
32°F / 0°C 28°F / -2°C 87% 30.09 in
(1019 mb)
N 5.8 mph
(N 9 kph)
- 10SM
06:15
Clear
32°F / 0°C 28°F / -2°C 87% 30.09 in
(1019 mb)
N 4.6 mph
(N 7 kph)
- 10SM
05:55
Clear
32°F / 0°C 28°F / -2°C 87% 30.09 in
(1019 mb)
N 5.8 mph
(N 9 kph)
- 10SM
05:35
Clear
32°F / 0°C 28°F / -2°C 87% 30.09 in
(1019 mb)
N 5.8 mph
(N 9 kph)
- 10SM
05:15
Clear
32°F / 0°C 28°F / -2°C 87% 30.09 in
(1019 mb)
NNW 5.8 mph
(NNW 9 kph)
- 10SM
04:55
Clear
32°F / 0°C 28°F / -2°C 87% 30.06 in
(1018 mb)
N 4.6 mph
(N 7 kph)
- 10SM
04:35
Clear
34°F / 1°C 28°F / -2°C 81% 30.06 in
(1018 mb)
NNW 5.8 mph
(NNW 9 kph)
- 10SM
04:15
Clear
32°F / 0°C 28°F / -2°C 87% 30.06 in
(1018 mb)
NW 5.8 mph
(NW 9 kph)
- 10SM
03:55
Clear
32°F / 0°C 28°F / -2°C 87% 30.06 in
(1018 mb)
NW 6.9 mph
(NW 11 kph)
- 10SM
03:35
Clear
32°F / 0°C 28°F / -2°C 87% 30.04 in
(1017 mb)
NW 6.9 mph
(NW 11 kph)
- 10SM
03:15
Clear
34°F / 1°C 28°F / -2°C 81% 30.04 in
(1017 mb)
NW 6.9 mph
(NW 11 kph)
- 10SM
02:55
Clear
32°F / 0°C 28°F / -2°C 87% 30.04 in
(1017 mb)
NW 5.8 mph
(NW 9 kph)
- 10SM
02:35
Clear
34°F / 1°C 28°F / -2°C 81% 30.04 in
(1017 mb)
NW 4.6 mph
(NW 7 kph)
- 10SM
02:15
Clear
36°F / 2°C 28°F / -2°C 75% 30.04 in
(1017 mb)
N 4.6 mph
(N 7 kph)
- 10SM
01:55
Clear
34°F / 1°C 28°F / -2°C 81% 30.04 in
(1017 mb)
NNW 4.6 mph
(NNW 7 kph)
- 10SM
01:35
Clear
36°F / 2°C 28°F / -2°C 75% 30.04 in
(1017 mb)
N 6.9 mph
(N 11 kph)
- 10SM
01:15
Clear
36°F / 2°C 30°F / -1°C 81% 30.04 in
(1017 mb)
N 6.9 mph
(N 11 kph)
- 10SM
00:55
Clear
36°F / 2°C 28°F / -2°C 75% 30.04 in
(1017 mb)
N 5.8 mph
(N 9 kph)
- 10SM
00:35
Clear
36°F / 2°C 28°F / -2°C 75% 30.04 in
(1017 mb)
NNW 6.9 mph
(NNW 11 kph)
- 10SM
00:15
Clear
37°F / 3°C 28°F / -2°C 70% 30.04 in
(1017 mb)
NNW 9.2 mph
(NNW 15 kph)
- 10SM
Time Weather Temperature Dewpoint Humidity Pressure Winds Precip Visibility


Weather for websites

WeatherForYou.com, LLC is not responsible for any damages or problems caused by this service. Current weather conditions are obtained from the closest station including government and personal stations which may have varying degrees of accuracy. Weather forecasts are derived from the NOAA NDFD. Like all things, this site belongs to Jesus Christ... He just trusts me to maintain it. If you have any questions or comments email webmaster@weatherforyou.com

Copyright © 2014, WeatherForYou.com LLC. All rights reserved.